GW2492 Weather Reports


time (UTC)temp
F
wind
direction
speed
knots
gust
knots
rain 1hr
in
rain 24hr
in
rain mn
in
humidity
%
barometer
mb
20260505180041 84 254 13.0 20.0 0.00 0.00 0.00 51 1008.3
20260505174548 84 270 7.8 18.2 0.00 0.00 0.00 52 1008.4
20260505173044 83 257 8.7 18.2 0.00 0.00 0.00 54 1008.6
20260505171543 82 277 10.4 17.4 0.00 0.00 0.00 57 1008.6
20260505170042 81 233 12.2 14.8 0.00 0.00 0.00 62 1008.7
20260505164550 79 232 11.3 16.5 0.00 0.00 0.00 66 1008.7
20260505163045 78 229 12.2 18.2 0.00 0.00 0.00 68 1008.6
20260505161546 77 227 13.0 18.2 0.00 0.00 0.00 72 1008.5
20260505153045 75 223 12.2 17.4 0.00 0.00 0.00 77 1008.5
20260505151545 74 228 13.0 19.1 0.00 0.00 0.00 77 1008.3
20260505124549 68 204 17.4 22.6 0.00 0.00 0.00 87 1007.4
20260505123042 67 221 15.6 20.9 0.00 0.00 0.00 87 1007.3
20260505121543 67 215 14.8 20.9 0.00 0.00 0.00 87 1007.1
20260505120046 67 223 13.0 20.0 0.00 0.00 0.00 86 1007.1
20260505114549 67 221 13.9 20.9 0.00 0.00 0.00 86 1006.9
20260505113042 67 221 14.8 19.1 0.00 0.00 0.00 85 1006.7
20260505111546 68 234 14.8 20.9 0.00 0.00 0.00 85 1006.7
20260505101550 69 229 13.9 20.0 0.00 0.00 0.00 82 1006.4
20260505100046 69 218 14.8 21.7 0.00 0.00 0.00 81 1006.3
20260505094601 69 219 15.6 21.7 0.00 0.00 0.00 81 1006.4
20260505093043 69 212 13.9 20.9 0.00 0.00 0.00 81 1006.2
20260505091545 69 217 13.9 20.9 0.00 0.00 0.00 81 1006.2
20260505090047 69 224 16.5 21.7 0.00 0.00 0.00 80 1006.6
20260505084553 69 205 14.8 20.9 0.00 0.00 0.00 80 1006.6
20260505083054 69 218 13.9 21.7 0.00 0.00 0.00 80 1006.5
20260505081555 69 221 14.8 23.5 0.00 0.00 0.00 80 1006.8
20260505080050 69 209 16.5 20.9 0.00 0.00 0.00 79 1006.8
20260505074545 70 211 16.5 21.7 0.00 0.00 0.00 79 1007.0
20260505073045 70 202 18.2 24.3 0.00 0.00 0.00 78 1007.1
20260505071550 70 206 18.2 24.3 0.00 0.00 0.00 78 1007.2
20260505070048 70 221 18.2 24.3 0.00 0.00 0.00 78 1007.3
20260505064549 70 199 18.2 24.3 0.00 0.00 0.00 77 1007.5
20260505063045 71 207 19.1 25.2 0.00 0.00 0.00 76 1007.8
20260505061553 71 205 18.2 24.3 0.00 0.00 0.00 76 1007.5
20260505060049 71 217 18.2 25.2 0.00 0.00 0.00 75 1007.7
20260505054554 72 200 19.1 26.1 0.00 0.00 0.00 75 1007.7
20260505053046 72 202 20.0 26.1 0.00 0.00 0.00 74 1007.8
20260505051541 72 186 16.5 26.1 0.00 0.00 0.00 73 1007.8
20260505041541 74 200 17.4 26.9 0.00 0.00 0.00 71 1007.6
20260505040045 74 203 17.4 24.3 0.00 0.00 0.00 70 1007.7
20260505034547 75 197 15.6 21.7 0.00 0.00 0.00 69 1007.5
20260505033045 75 203 14.8 23.5 0.00 0.00 0.00 68 1007.5
20260505031554 75 182 13.0 19.1 0.00 0.00 0.00 67 1007.5
20260505030046 76 191 13.9 19.1 0.00 0.00 0.00 65 1007.2
20260505024552 77 202 13.9 18.2 0.00 0.00 0.00 63 1007.3
20260505023048 77 198 11.3 15.6 0.00 0.00 0.00 63 1007.2
20260505021544 78 213 11.3 15.6 0.00 0.00 0.00 61 1007.2
20260505020043 79 207 13.0 20.0 0.00 0.00 0.00 58 1007.2
20260505014600 80 214 13.9 20.9 0.00 0.00 0.00 57 1007.0
20260505013048 80 207 11.3 17.4 0.00 0.00 0.00 56 1007.2
20260505011551 81 215 13.9 18.2 0.00 0.00 0.00 55 1007.0
20260505010045 82 216 9.6 16.5 0.00 0.00 0.00 54 1007.0
20260505004545 82 212 11.3 17.4 0.00 0.00 0.00 52 1007.0
20260505003042 83 224 13.9 20.0 0.00 0.00 0.00 51 1007.0
20260505001547 83 204 14.8 20.9 0.00 0.00 0.00 50 1007.1
20260505000052 84 225 16.5 21.7 0.00 0.00 0.00 47 1007.3
20260504234545 85 205 17.4 22.6 0.00 0.00 0.00 47 1007.3
20260504233044 85 211 19.1 22.6 0.00 0.00 0.00 46 1007.4
20260504231545 86 190 15.6 25.2 0.00 0.00 0.00 46 1007.3
20260504230049 86 217 17.4 23.5 0.00 0.00 0.00 45 1007.3
20260504224548 86 201 18.2 24.3 0.00 0.00 0.00 45 1007.4
20260504223047 86 198 17.4 23.5 0.00 0.00 0.00 46 1007.7
20260504221545 86 198 14.8 23.5 0.00 0.00 0.00 45 1007.7
20260504220042 87 215 15.6 22.6 0.00 0.00 0.00 44 1007.9
20260504214553 87 225 13.9 20.0 0.00 0.00 0.00 46 1007.9
20260504213046 87 223 13.0 20.9 0.00 0.00 0.00 46 1008.2
20260504211546 86 213 13.9 23.5 0.00 0.00 0.00 45 1008.5
20260504210058 86 223 13.9 20.9 0.00 0.00 0.00 45 1009.2
20260504204557 86 222 13.9 20.9 0.00 0.00 0.00 47 1009.0
20260504203044 86 225 13.9 20.9 0.00 0.00 0.00 47 1009.2
20260504201547 85 207 12.2 20.0 0.00 0.00 0.00 48 1009.1
20260504200047 85 194 12.2 19.1 0.00 0.00 0.00 48 1009.4
20260504194542 84 225 13.9 20.0 0.00 0.00 0.00 48 1009.8
20260504193053 83 199 13.9 20.0 0.00 0.00 0.00 51 1010.1
20260504191554 82 221 14.8 21.7 0.00 0.00 0.00 52 1010.1
20260504190053 82 229 13.9 19.1 0.00 0.00 0.00 53 1010.6
20260504184545 80 211 13.9 19.1 0.00 0.00 0.00 55 1010.9
20260504183043 80 199 13.0 20.9 0.00 0.00 0.00 55 1011.2
20260504181543 80 209 14.8 21.7 0.00 0.00 0.00 56 1011.4